Location: Navarre
(52.9016°N, 113.4144°W)
Time: 04:06:54
(UTC+00:00)

Envisat - Pass Details

Date: 05 December 2023
Orbit: 762 x 764 km, 98.3° (Epoch: 22 February)

Event Time Altitude Azimuth Distance (km) Brightness Sun altitude
Rises 11:35:33 0° 13° (NNE) 3,245 6.5 -33.9°
Reaches altitude 10° 11:37:52 10° 12° (NNE) 2,315 5.7 -33.6°
Enters shadow 11:38:16 12° 12° (NNE) 2,160 5.5 -33.5°
